• In Belarus
  • List of Countries
  • For 7 days
  • Water Temperature
  • Satellite Maps
  • Weather Map
  • Weather Widgets
  • user-avatar
    Login

    Hourly Weather Saint-Augustin

    Today, 24 November, Friday

    Time Temperature Precipitation Wind Pressure Humidity
    00:00 -6°C° 0.3 mm 5 mps 742 mmHg 82%
    01:00 -7°C° 0.3 mm 5 mps 742 mmHg 82%
    02:00 -8°C° 0 mm 4 mps 743 mmHg 83%
    03:00 -9°C° 0 mm 3 mps 743 mmHg 84%
    04:00 -10°C° 0 mm 2 mps 744 mmHg 85%
    05:00 -10°C° 0 mm 2 mps 745 mmHg 87%
    06:00 -10°C° 0 mm 1 mps 745 mmHg 89%
    07:00 -10°C° 0 mm 1 mps 746 mmHg 91%
    08:00 -10°C° 0 mm 1 mps 745 mmHg 86%
    09:00 -9°C° 0 mm 1 mps 745 mmHg 81%
    10:00 -8°C° 0 mm 1 mps 745 mmHg 76%
    11:00 -8°C° 0.3 mm 2 mps 744 mmHg 80%
    12:00 -9°C° 0.3 mm 3 mps 743 mmHg 84%
    13:00 -9°C° 0.3 mm 3 mps 742 mmHg 89%
    14:00 -8°C° 0.4 mm 3 mps 742 mmHg 89%
    15:00 -7°C° 0.4 mm 3 mps 741 mmHg 90%
    16:00 -6°C° 0.4 mm 3 mps 740 mmHg 91%
    17:00 -5°C° 0.6 mm 4 mps 739 mmHg 91%
    18:00 -3°C° 0.6 mm 4 mps 739 mmHg 90%
    19:00 -1°C° 0.6 mm 4 mps 738 mmHg 90%
    20:00 -1°C° 1.2 mm 4 mps 737 mmHg 90%
    21:00 0°C° 1.2 mm 5 mps 737 mmHg 91%
    22:00 0°C° 1.2 mm 5 mps 736 mmHg 91%
    23:00 0°C° 0.7 mm 5 mps 736 mmHg 91%

    Tomorrow, 25 November, Saturday

    Time Temperature Precipitation Wind Pressure Humidity
    00:00 +1°C° 0.7 mm 5 mps 735 mmHg 92%
    01:00 +1°C° 0.7 mm 5 mps 735 mmHg 92%
    02:00 +1°C° 0.7 mm 5 mps 734 mmHg 92%
    03:00 +1°C° 0.7 mm 5 mps 734 mmHg 92%
    04:00 +1°C° 0.7 mm 5 mps 733 mmHg 92%
    05:00 +1°C° 0.7 mm 5 mps 733 mmHg 92%
    06:00 +1°C° 0.7 mm 5 mps 733 mmHg 92%
    07:00 +1°C° 0.7 mm 5 mps 733 mmHg 92%
    08:00 +1°C° 0.3 mm 4 mps 734 mmHg 93%
    09:00 +1°C° 0.3 mm 4 mps 734 mmHg 93%
    10:00 +3°C° 0.3 mm 4 mps 734 mmHg 94%
    11:00 +3°C° 0.2 mm 4 mps 735 mmHg 94%
    12:00 +3°C° 0.2 mm 4 mps 735 mmHg 95%
    13:00 +3°C° 0.2 mm 3 mps 735 mmHg 96%
    14:00 +2°C° 0.1 mm 3 mps 736 mmHg 95%
    15:00 +2°C° 0.1 mm 3 mps 737 mmHg 94%
    16:00 +1°C° 0.1 mm 3 mps 737 mmHg 94%
    17:00 0°C° 0 mm 3 mps 738 mmHg 93%
    18:00 0°C° 0 mm 3 mps 739 mmHg 91%
    19:00 -1°C° 0 mm 3 mps 739 mmHg 90%
    20:00 -2°C° 0 mm 2 mps 740 mmHg 91%
    21:00 -3°C° 0 mm 2 mps 741 mmHg 91%
    22:00 -4°C° 0 mm 2 mps 741 mmHg 91%
    23:00 -4°C° 0 mm 2 mps 742 mmHg 89%

    Day after tomorrow, 26 November, Sunday

    Time Temperature Precipitation Wind Pressure Humidity
    00:00 -5°C° 0 mm 3 mps 742 mmHg 87%
    01:00 -5°C° 0 mm 3 mps 742 mmHg 85%
    02:00 -6°C° 0 mm 3 mps 743 mmHg 85%
    03:00 -6°C° 0 mm 3 mps 743 mmHg 85%
    04:00 -7°C° 0 mm 3 mps 743 mmHg 85%
    05:00 -7°C° 0 mm 3 mps 743 mmHg 85%
    06:00 -8°C° 0 mm 3 mps 744 mmHg 85%
    07:00 -8°C° 0 mm 3 mps 744 mmHg 85%
    08:00 -8°C° 0 mm 3 mps 744 mmHg 83%
    09:00 -8°C° 0 mm 3 mps 744 mmHg 81%
    10:00 -8°C° 0 mm 3 mps 744 mmHg 79%
    11:00 -7°C° 0 mm 3 mps 743 mmHg 77%
    12:00 -7°C° 0 mm 3 mps 743 mmHg 75%
    13:00 -6°C° 0 mm 3 mps 742 mmHg 73%
    14:00 -6°C° 0 mm 2 mps 742 mmHg 76%
    15:00 -6°C° 0 mm 2 mps 743 mmHg 79%
    16:00 -6°C° 0 mm 1 mps 743 mmHg 83%
    17:00 -6°C° 0.1 mm 1 mps 743 mmHg 85%
    18:00 -6°C° 0.1 mm 1 mps 743 mmHg 86%
    19:00 -6°C° 0.1 mm 1 mps 743 mmHg 88%
    20:00 -8°C° 0 mm 2 mps 743 mmHg 89%
    21:00 -8°C° 0 mm 2 mps 743 mmHg 90%
    22:00 -8°C° 0 mm 2 mps 743 mmHg 91%
    23:00 -8°C° 0 mm 2 mps 743 mmHg 90%

    27 November, Monday

    Time Temperature Precipitation Wind Pressure Humidity
    00:00 -9°C° 0 mm 2 mps 743 mmHg 90%
    01:00 -10°C° 0 mm 3 mps 743 mmHg 90%
    02:00 -10°C° 0 mm 3 mps 743 mmHg 89%
    03:00 -10°C° 0 mm 3 mps 743 mmHg 88%
    04:00 -12°C° 0 mm 3 mps 744 mmHg 87%
    05:00 -12°C° 0.1 mm 4 mps 744 mmHg 85%
    06:00 -12°C° 0.1 mm 4 mps 745 mmHg 84%
    07:00 -12°C° 0.1 mm 4 mps 745 mmHg 82%
    08:00 -13°C° 0 mm 5 mps 746 mmHg 80%
    09:00 -13°C° 0 mm 5 mps 746 mmHg 78%
    10:00 -13°C° 0 mm 5 mps 746 mmHg 75%
    11:00 -12°C° 0 mm 5 mps 747 mmHg 74%
    12:00 -12°C° 0 mm 5 mps 747 mmHg 72%
    13:00 -12°C° 0 mm 5 mps 747 mmHg 71%
    14:00 -11°C° 0 mm 4 mps 747 mmHg 73%
    15:00 -12°C° 0 mm 4 mps 748 mmHg 76%
    16:00 -12°C° 0 mm 3 mps 748 mmHg 78%
    17:00 -13°C° 0 mm 3 mps 749 mmHg 80%
    18:00 -12°C° 0 mm 2 mps 749 mmHg 82%
    19:00 -13°C° 0 mm 2 mps 750 mmHg 85%
    20:00 -13°C° 0 mm 2 mps 750 mmHg 86%
    21:00 -13°C° 0 mm 2 mps 749 mmHg 87%
    22:00 -11°C° 0 mm 1 mps 749 mmHg 88%
    23:00 -13°C° 0 mm 2 mps 748 mmHg 87%

    28 November, Tuesday

    Time Temperature Precipitation Wind Pressure Humidity
    00:00 -13°C° 0 mm 2 mps 748 mmHg 87%
    01:00 -14°C° 0 mm 3 mps 747 mmHg 87%
    02:00 -13°C° 0.2 mm 3 mps 746 mmHg 87%
    03:00 -12°C° 0.2 mm 4 mps 744 mmHg 88%
    04:00 -13°C° 0.2 mm 5 mps 743 mmHg 89%
    05:00 -10°C° 1.3 mm 4 mps 742 mmHg 90%
    06:00 -9°C° 1.3 mm 4 mps 740 mmHg 91%
    07:00 -8°C° 1.3 mm 4 mps 739 mmHg 92%
    08:00 -6°C° 0.4 mm 5 mps 738 mmHg 91%
    09:00 -5°C° 0.4 mm 5 mps 737 mmHg 90%
    10:00 -2°C° 0.4 mm 5 mps 736 mmHg 89%
    11:00 -1°C° 0.4 mm 5 mps 735 mmHg 90%
    12:00 0°C° 0.4 mm 5 mps 734 mmHg 91%
    13:00 +2°C° 0.4 mm 5 mps 734 mmHg 92%
    14:00 +3°C° 0.2 mm 4 mps 734 mmHg 92%
    15:00 +3°C° 0.2 mm 4 mps 734 mmHg 93%
    16:00 +2°C° 0.2 mm 3 mps 735 mmHg 93%
    17:00 +2°C° 0.1 mm 3 mps 735 mmHg 92%
    18:00 +1°C° 0.1 mm 3 mps 736 mmHg 92%
    19:00 +1°C° 0.1 mm 2 mps 736 mmHg 91%
    20:00 0°C° 0.1 mm 3 mps 737 mmHg 90%
    21:00 0°C° 0.1 mm 3 mps 737 mmHg 88%
    22:00 -1°C° 0.1 mm 4 mps 738 mmHg 87%
    23:00 -4°C° 0.1 mm 5 mps 739 mmHg 84%

    29 November, Wednesday

    Time Temperature Precipitation Wind Pressure Humidity
    00:00 -7°C° 0.1 mm 5 mps 740 mmHg 81%
    01:00 -10°C° 0.1 mm 6 mps 741 mmHg 78%
    02:00 -11°C° 0 mm 5 mps 742 mmHg 79%
    03:00 -11°C° 0 mm 5 mps 743 mmHg 80%
    04:00 -11°C° 0 mm 4 mps 744 mmHg 81%
    05:00 -12°C° 0 mm 5 mps 745 mmHg 81%
    06:00 -12°C° 0 mm 5 mps 746 mmHg 80%
    07:00 -12°C° 0 mm 5 mps 748 mmHg 79%
    08:00 -12°C° 0 mm 5 mps 749 mmHg 78%
    09:00 -12°C° 0 mm 6 mps 750 mmHg 77%
    10:00 -12°C° 0 mm 6 mps 750 mmHg 75%
    11:00 -11°C° 0 mm 5 mps 751 mmHg 75%
    12:00 -11°C° 0 mm 5 mps 752 mmHg 75%
    13:00 -11°C° 0 mm 5 mps 753 mmHg 74%
    14:00 -11°C° 0 mm 4 mps 753 mmHg 77%
    15:00 -11°C° 0 mm 4 mps 754 mmHg 79%
    16:00 -12°C° 0 mm 3 mps 755 mmHg 82%
    17:00 -12°C° 0 mm 2 mps 755 mmHg 84%
    18:00 -12°C° 0 mm 2 mps 756 mmHg 86%
    19:00 -11°C° 0 mm 1 mps 756 mmHg 89%
    20:00 -11°C° 0 mm 1 mps 756 mmHg 89%
    21:00 -11°C° 0 mm 1 mps 756 mmHg 89%
    22:00 -11°C° 0 mm 1 mps 757 mmHg 90%
    23:00 -13°C° 0 mm 2 mps 756 mmHg 90%
    Show more